sat.trackr.live / text

‹ back to catalog

YAOGAN-43 01B

NORAD 60459 · 2024-148B

PAYLOAD ACTIVE UNKNOWN

§ Identity

Operator
Country
PRC
Launch date
2024-08-16
Launch site
XICLF
Launch vehicle
Mass (kg)
RCS (m²)

External: N2YO · Heavens-Above · Gunter

§ Orbital elements

Epoch: 2026-05-25T01:30:11.592288Z

Period
93.80 min
Inclination
34.9928°
Eccentricity
0.0007926
Mean motion
15.35258315 rev/d
Perigee alt
454.7 km
Apogee alt
465.6 km
Semi-major
6,838.3 km
B*
3.5470e-4
RAAN
282.3270°
Arg perigee
358.1589°
Mean anomaly
1.9100°
Rev number
9,887

§ Raw data

YAOGAN-43 01B1 60459U 24148B   26145.06263417  .00012463  00000+0  35470-3 0  99972 60459  34.9928 282.3270 0007926 358.1589   1.9100 15.35258315 98879

JSON: /api/v1/satellites/60459 · /tle

For live sub-satellite position, see the globe view (requires WebGL).

§ Visibility from observer

Set your observer location to see the next 7 days of passes ≥ 10°. The values pass through the URL so the page stays shareable.

No JS? Fill the form by hand. The geolocation button needs JavaScript.